STARLINK-4436, 53479

Orbit data source: Space-Track

STARLINK-4436, 53479 is a payload satellite owned by SpaceX/Seattle (US) in SSO that was launched on Fri, 12 Aug 2022 UTC via an FALCON 9 launch vehicle from the Air Force Western Test Range (AFWTR). Payload-class satellites include a variety of spacecraft equipped with specific instruments for various scientific and technological missions. These include communications satellites like Starlink; space stations such as the ISS; scientific satellites like the Hubble; Earth observation satellites from companies like Planet Labs, Umbra, and HawkEye 360; GPS; miniature CubeSats for education and research; and military/defense satellites.

Loading next visibility...
Identifier
53479, 2022-099Q
Orbit
SSO
Country
Flag of USUS
Related business
Manufacturer
SpaceX/Seattle
Mission
Operational Commercial Communications
Bus & Motor
STARLINK, Unknown motor
Mass
300 kg wet, ~275 kg dry
Launch date (UTC)
2022-08-12 (4 years ago)
Launch vehicle
FALCON 9
Launch site
Air Force Western Test Range (AFWTR)
Object type
Payload
Rocket body
Debris
Shape & HBR
Box + 1 Pan, 10.1 m
Radar Cross Section
13.562 m², Large (>1 m²)

Expand to show TLE details & history
Last TLE update: 14 hours ago

TLE from 14 hours ago
0 STARLINK-4436
1 53479U 22099Q   26145.32916363 -.00001100  00000-0 -72195-4 0  9993
2 53479  97.4453 266.4504 0002671 120.0312 240.1180 15.05654040207582
Epoch: 2026-05-25T07:53Z
TLE epoch observation values (Epoch: 2026-05-25T07:53:59.737Z)
Latitude
-0.00008°
Longitude
-94.96701°
Altitude
553.491 km
Speed
7.584 km/s
True Right ascension
17h 45m 48s
True Declination
0° 00' 00"
Sunlit
Object was in full shadow at epoch
Visualization orbit readout
Latitude
Unknown
Longitude
Unknown
Altitude
Unknown
Speed
Unknown
Apparent Right ascension
Unknown
Apparent Declination
Unknown
Sunlit
N/A
Visualization observer readout
Local Sidereal Time
06:59:10
Azimuth
Unknown
Elevation
Unknown
Doppler factor
Unknown
Orbital elements
Apogee altitude
548.335 km
Perigee altitude
544.636 km
Semi-major axis
6,924.622 km
Eccentricity
0.00027
Inclination
97.4453°
RAAN
266.4504°
Arg. of periapsis
120.0312°
True anomaly
240.09147°
Mean anomaly
240.118°
Eccentric anomaly
240.10473°
Mean motion
3.7666 °/min
Orbital period
95.58 mins
BSTAR
-0.000072195
Loading maneuver chart data...
Computing Atmospheric mass density...
Loading historical data...
Loading historical data...
Loading historical data...
Loading historical data...
Loading historical data...
Loading historical data...
Loading historical data...

Documentation

Showing up to 5 results
|